Location: Albany
(35.0170°S, 117.8920°E)
Time: 17:33:41
(UTC+08:00)

Explorer 11/Cluster Stage 4 - Pass Details

Date: 23 January 2021
Orbit: 467 x 1257 km, 28.8° (Epoch: 02 March)

Event Time Altitude Azimuth Distance (km) Brightness Sun altitude
Rises 10:44:03 0° 288° (WNW) 3,116 9.5 63.7°
Reaches altitude 10° 10:46:51 10° 296° (WNW) 2,062 8.7 64.1°
Maximum altitude 10:51:09 35° 1° (N) 928 7.8 64.9°
Drops below altitude 10° 10:54:48 10° 68° (ENE) 1,747 8.9 65.5°
Sets 10:56:59 0° 77° (ENE) 2,572 9.6 65.9°
